STARLINK-31948, 59941

Orbit data source: Space-Track

STARLINK-31948, 59941 is a payload satellite owned by SpaceX/Seattle (US) in LEO that was launched on Sat, 01 Jun 2024 UTC via an FALCON 9 launch vehicle from the Air Force Eastern Test Range (AFETR). Payload-class satellites include a variety of spacecraft equipped with specific instruments for various scientific and technological missions. These include communications satellites like Starlink; space stations such as the ISS; scientific satellites like the Hubble; Earth observation satellites from companies like Planet Labs, Umbra, and HawkEye 360; GPS; miniature CubeSats for education and research; and military/defense satellites.

Loading next visibility...
Identifier
59941, 2024-106V
Orbit
LEO
Country
Flag of USUS
Related business
Manufacturer
SpaceX/Seattle
Mission
Operational Commercial Communications
Bus & Motor
STARLINK V2M, Unknown motor
Mass
730 kg wet, ~700 kg dry
Launch date (UTC)
2024-06-01 (2 years ago)
Launch vehicle
FALCON 9
Launch site
Air Force Eastern Test Range (AFETR)
Object type
Payload
Rocket body
Debris
Shape & HBR
Box + 2 Pan, 17.7 m
Radar Cross Section
33.884 m², Large (>1 m²)

Expand to show TLE details & history
Last TLE update: 10 hours ago

TLE from 10 hours ago
0 STARLINK-31948
1 59941U 24106V   26125.67024963 -.00001975  00000-0 -62218-4 0  9991
2 59941  43.0047   7.4698 0001753 257.3414 102.7242 15.27601251109271
Epoch: 2026-05-05T16:05Z
TLE epoch observation values (Epoch: 2026-05-05T16:05:09.568Z)
Latitude
0.00002°
Longitude
-97.36181°
Altitude
483.026 km
Speed
7.626 km/s
True Right ascension
00h 29m 52s
True Declination
0° 00' 00"
Sunlit
Object was in daylight at epoch
Visualization orbit readout
Latitude
Unknown
Longitude
Unknown
Altitude
Unknown
Speed
Unknown
Apparent Right ascension
Unknown
Apparent Declination
Unknown
Sunlit
N/A
Visualization observer readout
Local Sidereal Time
10:28:26
Azimuth
Unknown
Elevation
Unknown
Doppler factor
Unknown
Orbital elements
Apogee altitude
486.133 km
Perigee altitude
483.727 km
Semi-major axis
6,863.067 km
Eccentricity
0.00018
Inclination
43.0047°
RAAN
7.4698°
Arg. of periapsis
257.3414°
True anomaly
102.74379°
Mean anomaly
102.7242°
Eccentric anomaly
102.734°
Mean motion
3.81738 °/min
Orbital period
94.31 mins
BSTAR
-0.000062218
Loading maneuver chart data...
Computing Atmospheric mass density...
Loading historical data...
Loading historical data...
Loading historical data...
Loading historical data...
Loading historical data...
Loading historical data...
Loading historical data...

Documentation

Showing up to 5 results
|